DW6233 Weather Reports


Display with metric or nautical units.
time (UTC)temp
F
wind
direction
speed
MPH
gust
MPH
rain 1hr
in
rain 24hr
in
rain mn
in
humidity
%
barometer
mb
20260904214513 57 354 17.0 34.0 0.00 0.00 0.00 62 1015.0
20260904213018 57 349 17.0 28.0 0.00 0.00 0.00 63 1015.0
20260904211513 57 21 15.0 30.0 0.00 0.00 0.00 65 1015.2
20260904210011 57 359 15.0 22.0 0.00 0.00 0.00 65 1015.3
20260904204521 56 347 15.0 23.0 0.00 0.00 0.00 65 1015.2
20260904203016 56 330 11.0 24.0 0.00 0.00 0.00 64 1015.1
20260904201508 56 333 13.0 19.0 0.00 0.00 0.00 66 1015.0
20260904200006 56 346 11.0 20.0 0.00 0.00 0.00 67 1014.8
20260904194507 56 6 12.0 18.0 0.00 0.00 0.00 65 1014.6
20260904193006 56 356 8.0 18.0 0.00 0.00 0.00 65 1014.5
20260904191504 55 34 12.0 19.0 0.00 0.00 0.00 67 1014.3
20260904190002 54 22 6.0 12.0 0.00 0.00 0.00 70 1014.3
20260904184501 54 30 7.0 16.0 0.00 0.00 0.00 69 1014.0
20260904183115 55 19 6.0 19.0 0.00 0.00 0.00 69 1013.8
20260904181558 55 25 9.0 20.0 0.00 0.00 0.00 70 1013.6
20260904180059 55 2 10.0 21.0 0.00 0.00 0.00 70 1013.6
20260904174556 55 353 13.0 21.0 0.00 0.00 0.00 68 1013.3
20260904173056 55 9 13.0 24.0 0.00 0.00 0.00 65 1013.2
20260904171610 55 353 13.0 22.0 0.00 0.00 0.00 67 1013.2
20260904170051 55 17 9.0 17.0 0.00 0.00 0.00 68 1013.1
20260904164600 55 339 14.0 29.0 0.00 0.00 0.00 68 1012.6
20260904163048 56 350 16.0 24.0 0.00 0.00 0.00 67 1012.5
20260904161550 56 334 15.0 27.0 0.00 0.00 0.00 67 1012.4
20260904160047 56 326 16.0 26.0 0.00 0.00 0.00 67 1012.1
20260904154546 56 331 19.0 26.0 0.00 0.00 0.00 66 1012.3
20260904153103 56 332 21.0 29.0 0.00 0.00 0.00 64 1012.2
20260904151547 56 305 20.0 28.0 0.00 0.00 0.00 65 1012.2
20260904150046 56 306 18.0 27.0 0.00 0.00 0.00 65 1012.2
20260904144536 56 318 16.0 25.0 0.00 0.00 0.00 67 1012.3
20260904143059 56 339 15.0 25.0 0.00 0.00 0.00 64 1012.2
20260904141559 56 343 16.0 29.0 0.00 0.00 0.00 63 1012.2
20260904140059 56 350 16.0 26.0 0.00 0.00 0.00 65 1012.1
20260904134559 56 5 17.0 29.0 0.00 0.00 0.00 63 1011.9
20260904133055 56 331 18.0 25.0 0.00 0.00 0.00 64 1011.7
20260904131601 56 323 16.0 27.0 0.00 0.00 0.00 65 1011.5
20260904130046 56 334 18.0 31.0 0.00 0.00 0.00 62 1011.2
20260904123027 55 360 16.0 24.0 0.00 0.00 0.00 67 1010.7
20260904121524 55 26 11.0 22.0 0.00 0.00 0.00 67 1010.7
20260904120023 55 357 14.0 21.0 0.00 0.00 0.00 68 1010.6
20260904113043 55 348 14.0 25.0 0.00 0.00 0.00 71 1010.1
20260904111524 55 360 16.0 21.0 0.00 0.00 0.00 66 1010.2
20260904110019 55 346 12.0 24.0 0.00 0.00 0.00 67 1010.3
20260904104530 56 15 14.0 24.0 0.00 0.00 0.00 66 1010.4
20260904100005 56 360 13.0 26.0 0.00 0.00 0.00 68 1009.8
20260904094526 56 346 13.0 24.0 0.00 0.00 0.00 67 1009.5
20260904093011 56 318 16.0 26.0 0.00 0.00 0.00 66 1009.4
20260904091510 56 332 14.0 26.0 0.00 0.00 0.00 66 1009.1
20260904090009 56 322 14.0 21.0 0.00 0.00 0.00 67 1008.9
20260904084509 56 322 14.0 24.0 0.00 0.00 0.00 69 1008.5
20260904083016 57 308 17.0 26.0 0.00 0.00 0.00 69 1008.2
20260904081507 56 349 18.0 32.0 0.00 0.00 0.00 72 1007.6
20260904080006 56 9 23.0 33.0 0.00 0.00 0.00 72 1007.6
20260904074501 56 351 22.0 37.0 0.00 0.00 0.00 72 1006.8
20260904073051 57 348 17.0 40.0 0.00 0.00 0.00 71 1007.1
20260904070009 57 329 18.0 33.0 0.00 0.00 0.00 73 1006.6
20260904064559 57 336 19.0 32.0 0.00 0.00 0.00 71 1006.1
20260904063019 58 351 22.0 33.0 0.00 0.00 0.00 68 1006.1
20260904061556 57 352 20.0 31.0 0.00 0.00 0.00 69 1005.7
20260904060105 57 340 19.0 30.0 0.00 0.00 0.00 70 1005.6
20260904054623 58 349 23.0 34.0 0.00 0.00 0.00 71 1005.4
20260904051538 58 19 23.0 35.0 0.00 0.00 0.00 71 1004.8
20260904050051 59 342 19.0 31.0 0.00 0.00 0.00 71 1004.4
20260904044533 59 6 21.0 38.0 0.00 0.00 0.00 72 1004.5
20260904043041 59 351 21.0 41.0 0.00 0.00 0.00 71 1004.0
20260904041518 59 7 22.0 36.0 0.00 0.00 0.00 71 1003.7
20260904040008 59 337 22.0 32.0 0.00 0.00 0.00 72 1003.8
20260904034525 59 339 21.0 30.0 0.00 0.00 0.00 72 1003.6
20260904033048 59 332 22.0 35.0 0.00 0.00 0.00 71 1003.7
20260904031531 59 340 22.0 35.0 0.00 0.00 0.00 71 1003.9
20260904030043 59 333 19.0 38.0 0.00 0.00 0.00 73 1003.4
20260904024554 59 325 24.0 37.0 0.00 0.00 0.00 73 1003.0
20260904023022 59 340 21.0 33.0 0.00 0.00 0.00 74 1003.2
20260904021604 59 318 20.0 34.0 0.00 0.00 0.00 73 1003.5
20260904020104 59 343 21.0 33.0 0.00 0.00 0.00 72 1003.4
20260904014619 59 311 24.0 41.0 0.00 0.00 0.00 72 1003.0
20260904013118 59 324 25.0 37.0 0.00 0.00 0.00 73 1003.1
20260904011553 59 308 20.0 35.0 0.00 0.00 0.00 74 1003.7
20260904010041 59 21 24.0 42.0 0.00 0.00 0.00 73 1003.6
20260904003038 59 43 26.0 45.0 0.00 0.00 0.00 77 1003.1
20260904001511 60 10 30.0 51.0 0.00 0.00 0.00 81 1003.0
20260904000010 60 334 34.0 49.0 0.00 0.00 0.00 82 1002.7
20260903234510 60 357 35.0 47.0 0.00 0.00 0.00 81 1003.2
20260903233024 60 13 28.0 46.0 0.00 0.00 0.00 83 1003.7
20260903231510 60 18 33.0 50.0 0.00 0.00 0.00 83 1003.3
20260903230008 60 351 29.0 51.0 0.00 0.00 0.00 84 1003.5
20260903224506 59 337 32.0 54.0 0.00 0.00 0.00 85 1002.7
20260903223003 59 26 26.0 40.0 0.00 0.00 0.00 87 1002.1
20260903221500 58 5 28.0 50.0 0.00 0.00 0.00 89 1002.7